Back to catalog

INTELSAT 25

PROTOSTAR 1

AliveCommunicationsGEO
NORAD 33153·PAYLOAD· XX

Launched Jul 7, 2008 from Guiana Space Centre

Loading…

TLE

FreshSource: Space-Track

Epoch: Sep 14, 2026, 14:11 UTC

1 33153U 08034A   26257.59165441  .00000015  00000-0  00000-0 0  9993
2 33153   2.9370  79.2314 0007327 108.1451 102.6646  0.99031922 66577

Track INTELSAT 25 in real time with AllMySat

Download on the App Store